Location: Newark
(27.9675°N, 86.8869°E)
Time: 03:14:33
(UTC+00:00)

deb Explorer IX - Pass Details

Date: 01 November 2019
Orbit: 546 x 1105 km, 38.8° (Epoch: 20 November)

Event Time Altitude Azimuth Distance (km) Brightness Sun altitude
Rises 23:47:13 0° 209° (SSW) 2,901 ? -8.7°
Reaches altitude 10° 23:50:03 10° 193° (SSW) 1,921 ? -8.1°
Maximum altitude 23:53:23 22° 143° (SE) 1,271 ? -7.4°
Drops below altitude 10° 23:56:34 10° 92° (E) 1,816 ? -6.7°
Sets 23:59:09 0° 76° (ENE) 2,697 ? -6.1°
